#timestamp,LO_Frequency,Hit,StdDev 
1666015215.0,286047000.7,N
1666015216.0,286047000.7,N
1666015235.8,286047002.6,N
1666015255.6,286047000.5,N
1666015275.5,286047002.4,N
1666015295.3,286047002.3,N
1666015315.1,286047002.8,N
1666015335.9,286047002.7,N
1666015355.7,286047002.7,N
1666015375.5,286047002.5,N
1666015395.4,286047001.8,N
1666015415.2,286047001.5,N
1666015435.1,286047001.8,N
1666015436.0,286047001.8,N
1666015455.8,286047001.6,N
1666015475.6,286047001.8,N
1666015495.5,286047001.6,N
1666015515.3,286047001.3,N
1666015535.2,286047004.4,Y
1666015555.9,286047002.0,P
1666015575.7,286047003.9,P
1666015595.6,286047002.1,N
1666015615.4,286046999.7,N
1666015635.2,286047002.3,N
1666015655.1,286047000.1,N
1666015656.0,286047000.1,N
1666015675.8,286047000.0,N
1666015695.7,286047000.8,N
1666015715.5,286046996.5,N
1666015735.3,286047001.2,N
1666015755.2,286046998.1,N
1666015775.0,286047001.0,N
1666015775.9,286047001.0,N
1666015795.7,286047002.3,N
1666015815.6,286047000.3,N
1666015835.4,286047000.0,N
1666015855.3,286047001.2,N
1666015875.1,286047000.6,N
1666015876.0,286047000.6,N
1666015895.8,286047000.2,N
1666015915.7,286046999.8,N
1666015935.5,286047002.7,N
1666015955.3,286047002.6,N
1666015975.2,286047000.0,N
1666015995.0,286047002.4,N
1666015995.9,286047002.4,N
1666016015.8,286047000.6,N
1666016035.6,286047000.5,N
1666016055.4,286047000.7,N
1666016075.3,286046999.9,N
1666016095.1,286047000.6,N
1666016115.9,286047002.8,N
1666016135.7,286047000.1,N
1666016155.5,286047002.4,N
1666016175.4,286047001.3,N
1666016195.2,286047002.3,N
1666016215.0,286047002.3,N
1666016215.9,286047002.3,N
1666016235.8,286047001.9,N
1666016255.6,286047002.8,N
1666016275.5,286047002.5,N
1666016295.3,286047002.8,N
1666016315.1,286047002.1,N
1666016335.9,286047003.2,N
1666016355.7,286047003.9,Y
1666016375.5,286047001.8,P
1666016395.4,286047001.9,P
1666016415.2,286047001.9,P
1666016435.1,286047002.2,Y
1666016436.0,286047002.2,P
1666016455.8,286046998.2,P
1666016475.6,286046998.8,N
1666016495.5,286046999.2,N
1666016515.3,286046996.6,N
1666016535.2,286046997.1,N
1666016555.9,286046998.0,N
1666016575.7,286046995.3,N
1666016595.6,286046999.6,N
1666016615.4,286046999.3,N
1666016635.2,286046994.9,N
1666016655.1,286046997.5,N
1666016656.0,286046997.5,N
1666016675.8,286046995.2,N
1666016695.7,286046994.9,N
1666016715.5,286046997.9,N
1666016735.3,286046997.2,N
1666016755.2,286046999.2,N
1666016775.0,286046999.5,N
1666016775.9,286046999.5,N
1666016795.8,286046997.3,N
1666016815.6,286046999.0,N
1666016835.4,286046996.5,N
1666016855.3,286046999.6,N
1666016875.1,286046998.6,N
1666016895.8,286046998.8,N
1666016915.7,286046998.6,N
1666016935.5,286047000.8,N
1666016955.4,286046998.3,N
1666016975.2,286046998.7,N
1666016995.0,286046998.3,N
1666016995.9,286046998.3,N
1666017015.8,286046998.2,N
1666017035.6,286047000.7,N
1666017055.4,286047000.8,N
1666017075.3,286047000.9,N
1666017095.1,286046999.2,N
1666017115.9,286046996.8,N
1666017135.7,286046999.6,N
1666017155.5,286046997.1,N
1666017175.4,286046999.1,N
1666017195.2,286046997.0,N
1666017215.0,286046997.0,N
1666017215.9,286046997.0,N
1666017235.8,286046996.8,N
1666017255.6,286046997.1,N
1666017275.5,286046997.6,N
1666017295.3,286046996.7,N
1666017315.1,286046999.1,N
1666017335.9,286046998.2,N
1666017355.7,286046998.8,N
1666017375.5,286046999.3,N
1666017395.4,286046999.6,N
1666017415.2,286046999.6,N
1666017435.1,286046999.1,N
1666017436.0,286046999.1,N
1666017455.8,286046999.5,N
1666017475.6,286046998.2,N
1666017495.5,286047000.7,N
1666017515.3,286046998.1,N
1666017535.2,286046998.6,N
1666017555.9,286047001.2,N
1666017575.7,286047001.1,N
1666017595.6,286046998.3,N
1666017615.4,286047000.7,N
1666017635.2,286046998.3,N
1666017655.1,286046998.9,N
1666017656.0,286046998.9,N
1666017675.8,286046999.4,N
1666017695.7,286046994.9,Y
1666017715.5,286046995.2,P
1666017735.3,286046997.7,N
1666017755.2,286046996.9,N
1666017775.0,286046999.0,N
1666017775.9,286046999.0,N
1666017795.8,286046998.6,N
1666017815.6,286046998.6,N
1666017835.4,286046998.9,N
1666017855.3,286046998.2,N
1666017875.1,286046999.3,N
1666017895.8,286046997.1,N
1666017915.7,286046997.8,N
1666017935.5,286046996.5,Y
1666017955.4,286047001.1,P
1666017975.2,286047002.4,N
1666017995.0,286047003.9,N
1666017995.9,286047003.9,N
1666018015.8,286047004.0,N
1666018035.6,286047003.6,N
1666018055.5,286047003.4,N
1666018075.3,286047004.3,N
1666018095.1,286047001.3,N
1666018115.9,286047002.6,N
1666018135.7,286047000.1,N
1666018155.5,286047001.5,N
1666018175.4,286047001.7,N
1666018195.2,286047004.2,N
1666018215.1,286047003.1,N
1666018216.0,286047003.1,N
1666018235.8,286047001.8,N
1666018255.6,286047001.9,N
1666018275.5,286047001.5,N
1666018295.3,286047002.7,N
1666018315.1,286047002.7,N
1666018335.9,286047002.7,N
1666018355.7,286047002.7,N
1666018375.6,286047002.3,N
1666018395.4,286047004.0,N
1666018415.2,286047002.2,N
1666018435.1,286047002.8,N
1666018436.0,286047002.8,N
1666018455.8,286047002.1,N
1666018475.6,286047002.6,N
1666018495.5,286047002.1,N
1666018515.3,286047001.3,N
1666018535.2,286047004.2,Y
1666018555.9,286047000.2,P
1666018575.7,286047000.0,N
1666018595.6,286046999.7,N
1666018615.4,286047000.0,N
1666018635.2,286046999.8,N
1666018655.1,286046999.9,N
1666018656.0,286046999.9,N
1666018675.8,286047001.0,N
1666018695.7,286047000.9,N
1666018715.5,286047000.7,N
1666018735.3,286046998.7,N
1666018755.2,286047000.3,N
1666018775.0,286047000.3,N
1666018775.9,286047000.3,N
1666018795.8,286047000.4,N
